Temperature
14 14 14 14 14 14 14 14 14 14 14 12 12 12 13 13 13 13 13 13 13 13 13 13 13 13 13 14 14 14 14 14 14 14 14 14 14 14
14 14 14 14 14 14 14 14 13 13 13 13 12 12 13 13 13 13 13 13 13 13 13 13 13 13 13 13 13 13 13 13 14 14 14 14 14 14
14 14 14 14 13 13 13 13 13 13 13 12 12 12 12 12 12 12 12 12 12 12 12 12 12 13 13 13 13 13 13 13 13 13 13 13 13 13
13 13 13 13 13 13 13 13 13 13 13 12 12 12 12 12 12 12 12 12 12 12 12 12 12 12 12 12 12 12 12 12 12 12 13 13 13 13
13 13 13 13 13 13 13 13 13 12 12 12 12 12 12 12 12 11 11 11 11 11 12 12 12 12 12 12 12 12 12 12 12 12 12 12 12 12
13 13 13 13 13 13 13 12 12 12 12 12 12 11 11 11 11 11 11 11 11 11 11 11 11 11 11 11 11 11 11 11 11 11 11 11 11 11
13 13 13 13 13 13 13 12 12 12 12 11 11 11 11 11 11 11 11 11 10 10 10 10 10 10 10 10 11 11 11 11 11 11 11 11 11 11
13 13 13 13 13 13 13 12 12 12 11 11 11 11 11 10 10 10 10 10 10 10 10 10 10 10 10 10 10 10 10 10 10 10 10 10 10 10
13 12 12 13 13 12 12 12 12 12 12 11 11 11 10 10 10 10 9 9 9 9 9 9 9 9 9 9 10 10 10 10 9 9 9 10 10 10
13 12 12 12 12 12 12 12 11 11 11 11 11 11 10 10 10 10 9 9 9 9 9 9 9 9 9 9 9 9 9 9 9 9 9 9 9 9
12 12 12 12 12 12 12 11 11 11 11 11 11 11 10 10 10 9 9 9 9 9 8 8 8 8 8 8 8 9 9 9 9 9 9 9 8 8
12 12 12 12 12 12 11 11 10 11 10 10 10 10 10 10 10 9 9 8 8 8 8 8 7 7 7 8 8 8 8 8 8 8 8 8 8 8
11 11 11 11 11 11 11 11 10 10 10 10 9 9 9 9 9 9 9 8 8 7 7 7 7 7 6 7 7 7 7 7 7 7 7 7 7 7
11 11 11 11 11 11 11 11 10 10 9 9 9 9 9 9 9 8 8 8 8 7 7 7 6 6 6 6 6 6 6 6 7 6 6 6 6 6
11 11 11 11 11 10 10 10 10 9 9 9 9 9 9 8 8 8 8 8 7 7 7 7 6 6 5 5 5 6 6 6 6 6 6 6 6 6
11 10 10 10 10 10 10 9 9 9 9 8 8 8 8 8 8 7 7 7 7 6 6 6 6 6 5 5 5 5 5 5 5 5 5 5 5 5
10 10 10 9 9 9 9 9 9 8 8 8 8 7 7 7 7 7 7 6 6 6 6 6 6 5 5 5 4 4 4 5 5 4 4 4 4 4
10 9 9 9 9 9 8 8 8 8 8 7 7 7 7 6 6 6 6 6 5 5 5 5 5 5 5 5 5 4 4 4 4 4 4 4 4 4
9 9 9 9 8 8 8 8 7 7 7 7 7 6 6 6 6 5 5 5 5 5 5 4 4 4 4 4 4 4 4 4 3 3 3 3 3 3
9 9 8 8 8 8 8 7 7 7 7 6 6 6 6 5 5 5 5 5 4 4 4 4 4 4 3 3 3 4 4 3 3 3 3 3 3 3
8 8 8 8 7 7 7 7 6 6 6 6 6 5 5 5 5 5 4 4 4 4 4 4 4 3 3 3 2 3 3 3 3 2 2 2 2 2
8 7 7 7 7 7 6 6 6 6 5 5 5 5 5 4 4 4 4 4 3 3 3 3 3 3 3 2 2 2 3 3 2 2 2 2 2 2
7 7 7 6 6 6 6 5 5 5 5 4 4 4 4 4 4 3 3 3 3 3 3 3 3 2 2 2 2 2 2 2 2 2 2 2 1 1
Wind_Speed
4 4 3 3 2 2 1 1 1 1 1 2 1 3 3 4 5 5 6 9 9 9 9 8 9 9 9 9 10 10 10 10 9 8 8 7 7 7
2 3 3 3 2 2 2 1 2 1 0 2 1 2 3 3 4 4 4 5 6 8 8 8 8 9 9 9 10 10 10 10 10 10 9 8 7 7
3 3 3 2 2 2 1 2 1 1 0 0 1 1 2 2 3 4 3 3 4 6 7 7 8 8 8 8 8 9 9 10 10 10 10 9 8 8
2 2 2 2 1 1 1 1 1 2 1 1 0 1 2 2 3 3 3 3 3 5 5 6 7 7 7 7 7 7 8 8 9 9 10 10 10 9
1 1 1 1 1 1 0 0 1 1 2 2 1 1 2 2 3 3 3 3 3 2 2 3 4 5 6 6 6 7 7 8 8 9 9 10 10 10
2 1 1 1 1 1 0 1 1 1 1 2 2 2 2 3 3 3 3 2 3 4 3 3 2 2 3 4 5 6 6 7 7 8 9 9 10 11
3 2 2 0 2 2 2 1 1 2 2 2 2 2 2 3 3 4 4 4 3 3 4 4 4 4 3 2 3 5 6 7 8 8 9 10 10 11
3 3 3 3 3 3 1 2 3 3 3 3 3 3 4 4 4 4 5 5 4 3 5 5 4 4 4 4 4 5 7 8 8 9 10 10 11 11
4 4 3 2 3 4 4 6 4 4 5 5 5 5 5 5 5 6 5 6 6 5 6 6 5 6 5 4 3 6 7 8 9 10 11 11 11 12
4 4 4 4 3 3 4 4 4 4 4 6 5 5 5 6 6 7 7 7 7 5 5 7 6 7 7 7 5 6 8 9 10 11 12 12 13 14
5 4 4 4 2 3 5 5 5 4 4 5 5 6 6 6 6 6 6 6 7 6 4 6 7 8 8 7 6 7 9 11 12 12 13 13 15 15
4 4 3 4 3 4 6 6 6 6 5 5 6 7 8 7 8 7 7 7 7 6 4 5 7 7 7 6 6 8 9 11 13 14 14 15 15 13
5 4 4 5 5 6 8 7 7 7 7 7 6 6 6 6 6 7 7 7 8 8 6 6 7 8 8 9 8 9 9 10 10 11 13 14 14 12
5 5 3 4 6 7 7 6 7 7 7 7 7 6 6 6 6 7 8 9 10 10 10 9 8 9 10 11 11 9 9 10 11 11 12 12 13 15
5 3 3 5 6 7 7 8 8 7 7 7 7 7 7 7 7 6 8 9 11 12 12 12 10 10 10 12 12 11 11 10 10 10 11 11 11 11
6 5 6 7 7 7 7 7 7 7 7 8 8 7 7 6 7 7 7 7 8 9 10 12 12 11 11 12 12 13 12 10 10 10 11 11 12 13
5 5 6 6 6 6 6 7 6 7 7 7 8 8 8 7 7 7 7 8 9 9 9 8 10 12 12 12 12 12 12 12 12 11 11 12 12 12
5 6 7 7 7 7 7 7 7 7 7 8 8 8 8 8 8 8 8 9 10 10 10 9 9 9 10 11 11 13 12 12 12 12 12 13 14 13
7 7 7 7 8 8 8 8 8 8 8 8 8 9 9 9 9 9 9 9 10 10 10 9 9 10 12 14 11 10 12 13 12 12 12 13 14 14
7 7 7 7 7 8 8 8 8 8 8 8 9 9 9 9 9 9 10 10 11 11 11 10 10 10 12 14 14 13 13 13 13 13 13 13 14 14
6 7 7 7 7 8 8 8 8 8 9 9 9 9 9 9 10 10 11 12 11 12 12 12 11 11 12 11 13 14 13 13 14 13 14 14 14 14
6 6 6 7 7 7 8 8 9 9 9 9 9 9 9 10 11 12 11 11 11 12 13 12 12 11 10 12 14 16 16 14 13 17 18 17 13 13
6 6 7 7 7 7 7 8 10 9 9 9 9 9 10 10 11 11 11 12 12 13 13 12 11 11 11 12 14 15 18 17 13 12 12 15 19 22
Wind_Direction
90 90 82 83 66 54 49 352 316 133 91 70 52 35 19 27 8 11 31 35 29 31 33 36 36 33 29 26 23 22 20 19 19 20 16 13 9 0
89 90 86 87 77 69 52 40 3 338 45 54 34 23 21 21 16 6 27 37 33 31 30 28 27 26 24 22 21 22 21 19 17 15 13 6 357 350
112 106 99 79 79 72 59 50 36 21 99 41 36 23 18 1 7 358 2 4 33 37 25 21 21 21 18 16 17 17 17 17 14 10 7 2 353 341
119 121 113 107 84 48 32 48 33 352 316 296 327 343 342 346 342 340 348 359 15 43 30 23 20 20 17 14 12 11 11 11 8 3 358 355 348 339
168 165 152 142 139 100 14 22 11 341 314 289 313 333 325 334 328 324 332 340 342 14 29 28 22 15 14 11 9 7 7 5 3 359 355 350 345 338
203 212 225 237 265 262 253 292 288 284 290 290 298 310 315 318 313 316 317 322 327 331 333 326 327 332 354 2 0 358 355 353 352 351 348 345 342 337
206 214 214 14 9 335 312 302 283 272 269 276 281 290 297 306 312 311 310 310 309 320 310 309 306 307 309 318 336 347 344 338 335 335 336 334 332 329
220 219 202 200 190 199 252 309 311 283 281 277 279 286 295 298 302 300 306 308 309 318 303 302 302 301 306 313 341 334 326 324 323 324 325 323 321 318
233 225 222 217 218 223 208 216 232 252 268 275 279 287 292 300 296 294 296 297 299 314 307 297 296 295 294 298 306 308 309 310 311 314 314 313 311 310
237 237 234 233 233 243 240 246 252 247 246 253 268 280 290 295 287 288 293 289 285 286 294 292 296 294 294 285 260 276 287 290 294 298 301 304 305 303
233 238 241 239 207 243 246 251 255 255 245 249 268 275 282 285 286 279 281 283 288 287 282 288 297 297 290 281 267 250 262 271 278 283 289 293 296 296
230 229 227 237 217 237 245 252 257 262 264 255 248 248 256 252 245 258 270 277 286 289 288 286 293 300 293 280 286 283 276 269 265 267 273 279 284 290
236 235 228 200 220 236 253 257 266 276 269 268 268 266 264 264 259 257 260 263 271 275 288 287 287 287 284 291 291 290 290 291 288 282 270 266 266 271
246 245 235 201 225 239 246 257 267 269 267 266 266 267 267 268 267 269 266 263 264 271 278 277 277 282 284 286 290 291 289 290 290 291 291 283 267 258
250 252 243 223 232 239 237 246 251 256 260 263 267 271 273 275 277 275 270 267 267 266 268 269 271 274 275 280 286 289 291 289 286 288 290 290 289 286
245 236 229 236 240 251 250 246 249 254 259 264 270 273 276 276 273 273 272 273 271 271 268 268 268 270 271 275 279 283 285 286 287 286 287 287 286 283
243 245 248 248 250 251 254 256 254 253 255 260 267 271 272 272 271 269 269 271 271 276 280 276 273 271 269 272 275 277 282 284 285 288 288 286 283 282
243 248 251 253 256 259 260 260 257 258 261 264 267 270 271 272 274 272 267 267 270 274 278 282 282 280 277 270 255 273 280 283 286 285 283 284 285 285
242 252 256 258 260 262 263 263 264 265 266 266 266 268 269 271 272 273 271 270 272 275 279 281 280 278 281 284 279 249 274 284 286 284 282 282 285 288
249 258 261 263 263 264 264 265 265 266 264 265 266 269 269 270 271 271 271 273 276 278 280 279 276 274 275 282 287 284 261 271 280 282 284 284 283 285
256 261 265 267 267 268 268 267 266 267 267 266 266 268 269 271 271 272 273 273 273 276 277 277 278 275 276 279 280 280 281 265 267 276 284 286 288 289
266 268 270 272 272 270 270 269 269 268 269 268 269 269 270 270 271 272 273 275 274 275 277 279 282 279 275 274 278 284 288 289 275 264 263 266 276 283
271 274 275 276 277 277 274 273 273 274 273 273 273 272 272 270 270 271 272 272 274 277 279 281 281 276 274 274 278 282 286 291 290 287 280 270 264 265
Height
1569 1569 1569 1569 1569 1569 1569 1569 1571 1570 1570 1569 1567 1566 1564 1563 1562 1560 1559 1557 1555 1553 1551 1550 1549 1548 1546 1545 1543 1542 1540 1539 1538 1538 1538 1538 1537 1538
1569 1570 1570 1570 1570 1569 1569 1569 1569 1570 1570 1569 1567 1566 1564 1563 1562 1560 1559 1557 1555 1553 1551 1550 1548 1547 1546 1544 1543 1541 1540 1538 1537 1536 1536 1537 1536 1536
1571 1570 1570 1570 1570 1570 1570 1569 1569 1569 1569 1568 1567 1566 1564 1563 1561 1560 1558 1557 1555 1553 1551 1550 1548 1547 1545 1544 1542 1541 1539 1538 1537 1536 1535 1534 1534 1533
1571 1571 1571 1570 1570 1570 1570 1569 1569 1568 1569 1568 1567 1565 1564 1562 1561 1559 1558 1556 1554 1552 1551 1549 1547 1546 1544 1543 1541 1539 1538 1536 1535 1534 1533 1532 1531 1530
1571 1571 1571 1571 1570 1570 1569 1569 1568 1568 1567 1567 1566 1564 1563 1561 1560 1558 1557 1555 1554 1551 1550 1548 1546 1544 1543 1541 1539 1538 1536 1534 1533 1531 1530 1529 1528 1527
1570 1570 1570 1570 1570 1569 1569 1568 1568 1567 1566 1565 1565 1563 1562 1560 1559 1557 1556 1554 1552 1550 1548 1546 1545 1543 1541 1539 1537 1535 1534 1532 1530 1529 1527 1526 1524 1523
1569 1569 1568 1568 1568 1568 1567 1567 1566 1566 1565 1564 1563 1562 1561 1559 1558 1556 1555 1553 1551 1549 1547 1545 1543 1541 1539 1537 1535 1533 1531 1529 1528 1526 1524 1522 1521 1519
1568 1567 1567 1566 1566 1565 1565 1565 1564 1564 1563 1562 1562 1561 1559 1558 1556 1554 1553 1551 1549 1547 1545 1543 1541 1539 1537 1535 1532 1530 1528 1526 1524 1522 1520 1518 1516 1515
1566 1566 1565 1564 1564 1564 1563 1562 1562 1561 1560 1560 1559 1558 1557 1555 1553 1552 1550 1548 1546 1545 1542 1540 1538 1536 1534 1531 1529 1527 1525 1522 1520 1518 1516 1514 1512 1510
1563 1563 1563 1562 1562 1561 1561 1560 1559 1558 1557 1556 1556 1554 1553 1552 1550 1549 1547 1545 1543 1541 1539 1537 1535 1532 1530 1528 1525 1522 1520 1518 1516 1513 1511 1509 1506 1504
1560 1560 1560 1559 1559 1558 1558 1557 1556 1555 1554 1553 1551 1550 1549 1548 1546 1545 1543 1542 1540 1538 1536 1533 1531 1528 1526 1523 1521 1518 1515 1513 1511 1508 1506 1504 1501 1498
1557 1557 1556 1556 1556 1555 1554 1554 1553 1552 1551 1549 1548 1546 1545 1543 1542 1541 1539 1538 1536 1534 1532 1529 1527 1525 1521 1519 1517 1514 1511 1508 1505 1503 1500 1498 1495 1493
1554 1553 1553 1553 1552 1551 1551 1550 1549 1548 1547 1545 1544 1542 1541 1539 1538 1536 1534 1533 1531 1530 1528 1525 1523 1521 1519 1515 1512 1509 1507 1504 1501 1498 1495 1492 1490 1487
1550 1550 1549 1549 1548 1547 1546 1545 1544 1543 1542 1541 1539 1538 1536 1534 1533 1531 1529 1528 1526 1524 1522 1521 1518 1516 1513 1510 1507 1504 1501 1498 1495 1492 1489 1486 1483 1481
1546 1546 1545 1544 1544 1543 1542 1541 1540 1539 1537 1536 1534 1533 1531 1529 1528 1526 1524 1522 1520 1518 1516 1515 1512 1510 1508 1505 1502 1499 1496 1493 1490 1487 1484 1481 1478 1475
1542 1541 1541 1540 1539 1538 1537 1536 1534 1533 1532 1530 1529 1527 1526 1524 1522 1520 1518 1516 1514 1512 1510 1508 1506 1504 1501 1498 1496 1492 1490 1487 1484 1481 1477 1474 1471 1468
1537 1536 1536 1535 1534 1533 1532 1530 1529 1528 1526 1525 1523 1522 1520 1518 1516 1514 1512 1510 1509 1506 1504 1502 1500 1498 1495 1493 1489 1486 1483 1480 1478 1475 1471 1467 1464 1461
1533 1532 1531 1530 1529 1528 1526 1525 1524 1522 1521 1519 1518 1516 1514 1512 1511 1509 1507 1505 1502 1500 1498 1496 1494 1491 1488 1485 1483 1479 1477 1474 1471 1468 1464 1460 1456 1454
1528 1527 1526 1525 1524 1522 1521 1519 1518 1517 1515 1513 1512 1510 1508 1507 1505 1503 1501 1499 1496 1494 1492 1491 1488 1485 1482 1477 1475 1474 1470 1466 1463 1460 1457 1453 1449 1446
1523 1522 1520 1519 1518 1516 1515 1513 1512 1510 1509 1507 1505 1504 1502 1500 1498 1496 1495 1492 1490 1488 1486 1484 1482 1479 1475 1472 1467 1465 1463 1460 1456 1452 1449 1446 1442 1438
1517 1516 1515 1514 1512 1511 1509 1507 1505 1504 1502 1500 1499 1497 1495 1494 1492 1490 1488 1486 1484 1481 1478 1476 1474 1472 1468 1465 1460 1456 1455 1453 1449 1446 1442 1438 1434 1430
1513 1511 1509 1508 1506 1504 1502 1501 1499 1497 1495 1494 1492 1490 1488 1486 1484 1482 1481 1479 1476 1474 1471 1468 1466 1464 1461 1458 1453 1449 1446 1444 1441 1438 1435 1432 1428 1422
1507 1506 1504 1502 1500 1498 1496 1494 1492 1490 1488 1487 1485 1483 1481 1479 1477 1475 1473 1471 1469 1466 1463 1460 1458 1456 1453 1450 1446 1442 1439 1436 1433 1429 1426 1423 1420 1416